EXS17FS LPFR-EGSS

Flight info

Callsign EXS17FS
Flight time 2h 32m
Altitude 36000
Route DEMOS DCT LOTEE DCT OZNOH DCT ARTIV DCT DIKRO UM185 TELTU
Aircraft A321/M-SDE3FGHIRWY/LB1

Departure

Time 2026-05-06 13:28
Airport Faro - Gago Coutinho International Airport (LPFR)

Arrival

Time 2026-05-06 16:01
Airport London Stansted Airport (EGSS)
Time Latitude Longitude Altitude Speed Heading
2026-05-06 13:02 37.01937 -7.96974 34 ft 0 kts 11°
2026-05-06 13:19 37.01928 -7.96977 34 ft 3 kts 11°
2026-05-06 13:19 37.01908 -7.96981 32 ft 3 kts 11°
2026-05-06 13:19 37.01888 -7.96986 31 ft 3 kts 11°
2026-05-06 13:20 37.01868 -7.96991 31 ft 3 kts 11°
2026-05-06 13:20 37.01848 -7.96996 33 ft 3 kts 11°
2026-05-06 13:20 37.01828 -7.97001 31 ft 3 kts 11°
2026-05-06 13:20 37.01817 -7.97004 33 ft 1 kts 11°
2026-05-06 13:21 37.01815 -7.97004 32 ft 0 kts 11°
2026-05-06 13:22 37.01818 -7.96995 32 ft 1 kts 80°
2026-05-06 13:23 37.01801 -7.96974 34 ft 7 kts 121°
2026-05-06 13:23 37.01781 -7.96899 32 ft 9 kts 128°
2026-05-06 13:23 37.01725 -7.96896 34 ft 10 kts 189°
2026-05-06 13:23 37.01667 -7.96857 33 ft 12 kts 105°
2026-05-06 13:24 37.01653 -7.96761 33 ft 11 kts 100°
2026-05-06 13:24 37.01639 -7.96664 32 ft 12 kts 100°
2026-05-06 13:24 37.01625 -7.96563 34 ft 12 kts 100°
2026-05-06 13:24 37.01610 -7.96457 34 ft 13 kts 100°
2026-05-06 13:25 37.01595 -7.96347 33 ft 13 kts 100°
2026-05-06 13:25 37.01584 -7.96273 33 ft 13 kts 100°
2026-05-06 13:25 37.01569 -7.96164 32 ft 12 kts 100°
2026-05-06 13:25 37.01555 -7.96069 33 ft 10 kts 100°
2026-05-06 13:26 37.01544 -7.95986 33 ft 9 kts 100°
2026-05-06 13:26 37.01529 -7.95884 33 ft 11 kts 102°
2026-05-06 13:26 37.01488 -7.95832 33 ft 15 kts 164°
2026-05-06 13:26 37.01389 -7.95844 31 ft 11 kts 189°
2026-05-06 13:27 37.01349 -7.95901 30 ft 8 kts 278°
2026-05-06 13:27 37.01350 -7.95907 30 ft 2 kts 280°
2026-05-06 13:27 37.01372 -7.96072 30 ft 48 kts 279°
2026-05-06 13:27 37.01468 -7.96740 33 ft 105 kts 280°
2026-05-06 13:28 37.01620 -7.97829 35 ft 149 kts 279°
2026-05-06 13:28 37.01806 -7.99132 485 ft 151 kts 278°
2026-05-06 13:28 37.01999 -8.00441 1058 ft 154 kts 281°
2026-05-06 13:28 37.02206 -8.01764 1604 ft 157 kts 282°
2026-05-06 13:29 37.02417 -8.03145 2052 ft 166 kts 284°
2026-05-06 13:29 37.02652 -8.04630 2336 ft 181 kts 284°
2026-05-06 13:29 37.02913 -8.06226 2639 ft 192 kts 284°
2026-05-06 13:29 37.03174 -8.07964 2886 ft 211 kts 282°
2026-05-06 13:30 37.03429 -8.09800 3424 ft 216 kts 282°
2026-05-06 13:30 37.03845 -8.11584 4018 ft 216 kts 299°
2026-05-06 13:30 37.04734 -8.13107 4542 ft 224 kts 319°
2026-05-06 13:30 37.06098 -8.14199 4778 ft 244 kts 338°
2026-05-06 13:31 37.07708 -8.15073 5231 ft 257 kts 337°
2026-05-06 13:31 37.09373 -8.15980 5932 ft 262 kts 337°
2026-05-06 13:31 37.11059 -8.16903 6625 ft 267 kts 336°
2026-05-06 13:31 37.12770 -8.17845 7288 ft 270 kts 336°
2026-05-06 13:32 37.14507 -8.18806 7930 ft 275 kts 335°
2026-05-06 13:32 37.16256 -8.19775 8587 ft 279 kts 335°
2026-05-06 13:32 37.18048 -8.20768 9236 ft 284 kts 334°
2026-05-06 13:32 37.19868 -8.21779 9882 ft 288 kts 334°
2026-05-06 13:33 37.21748 -8.22825 10186 ft 305 kts 334°
2026-05-06 13:33 37.23752 -8.23942 10316 ft 325 kts 334°
2026-05-06 13:33 37.25890 -8.25131 10447 ft 344 kts 334°
2026-05-06 13:33 37.28142 -8.26378 10618 ft 360 kts 335°
2026-05-06 13:34 37.30462 -8.27658 11080 ft 367 kts 335°
2026-05-06 13:34 37.32785 -8.28939 11617 ft 370 kts 334°
2026-05-06 13:34 37.35154 -8.30252 12156 ft 374 kts 334°
2026-05-06 13:34 37.37544 -8.31581 12701 ft 377 kts 334°
2026-05-06 13:35 37.39964 -8.32930 13246 ft 380 kts 334°
2026-05-06 13:35 37.42394 -8.34285 13779 ft 383 kts 334°
2026-05-06 13:35 37.44806 -8.35632 14232 ft 386 kts 334°
2026-05-06 13:35 37.47268 -8.37006 14699 ft 388 kts 334°
2026-05-06 13:36 37.49800 -8.38251 15148 ft 392 kts 341°
2026-05-06 13:36 37.52482 -8.38969 15594 ft 396 kts 348°
2026-05-06 13:36 37.55214 -8.39529 16024 ft 398 kts 348°
2026-05-06 13:36 37.57960 -8.40093 16450 ft 401 kts 348°
2026-05-06 13:37 37.60721 -8.40662 16870 ft 403 kts 348°
2026-05-06 13:37 37.63498 -8.41241 17275 ft 405 kts 348°
2026-05-06 13:37 37.66253 -8.41818 17677 ft 407 kts 348°
2026-05-06 13:37 37.69063 -8.42407 18071 ft 409 kts 348°
2026-05-06 13:38 37.71890 -8.42996 18431 ft 412 kts 348°
2026-05-06 13:38 37.74727 -8.43588 18766 ft 414 kts 348°
2026-05-06 13:38 37.77574 -8.44184 19111 ft 416 kts 348°
2026-05-06 13:38 37.80446 -8.44785 19452 ft 417 kts 348°
2026-05-06 13:39 37.83319 -8.45382 19797 ft 419 kts 348°
2026-05-06 13:39 37.86209 -8.45980 20133 ft 422 kts 348°
2026-05-06 13:39 37.89074 -8.46578 20478 ft 423 kts 348°
2026-05-06 13:39 37.91992 -8.47191 20840 ft 425 kts 348°
2026-05-06 13:40 37.94922 -8.47810 21193 ft 427 kts 348°
2026-05-06 13:40 37.97861 -8.48433 21548 ft 430 kts 348°
2026-05-06 13:40 38.00827 -8.49060 21901 ft 432 kts 348°
2026-05-06 13:40 38.03801 -8.49687 22249 ft 434 kts 348°
2026-05-06 13:41 38.06791 -8.50316 22588 ft 436 kts 348°
2026-05-06 13:41 38.09805 -8.50949 22927 ft 438 kts 348°
2026-05-06 13:41 38.12825 -8.51585 23261 ft 441 kts 348°
2026-05-06 13:41 38.15853 -8.52222 23587 ft 443 kts 348°
2026-05-06 13:42 38.18903 -8.52862 23859 ft 444 kts 348°
2026-05-06 13:42 38.21962 -8.53502 24154 ft 446 kts 348°
2026-05-06 13:42 38.24993 -8.54139 24437 ft 448 kts 348°
2026-05-06 13:42 38.28070 -8.54790 24731 ft 449 kts 348°
2026-05-06 13:43 38.31017 -8.55417 24990 ft 451 kts 348°
2026-05-06 13:43 38.34118 -8.56077 25272 ft 452 kts 348°
2026-05-06 13:43 38.37236 -8.56740 25549 ft 454 kts 348°
2026-05-06 13:43 38.40359 -8.57403 25824 ft 455 kts 348°
2026-05-06 13:44 38.43490 -8.58070 26094 ft 457 kts 348°
2026-05-06 13:44 38.46635 -8.58736 26358 ft 458 kts 348°
2026-05-06 13:44 38.49785 -8.59404 26720 ft 457 kts 348°
2026-05-06 13:44 38.52909 -8.60062 27235 ft 452 kts 348°
2026-05-06 13:45 38.55997 -8.60714 27760 ft 447 kts 348°
2026-05-06 13:45 38.62050 -8.62002 28847 ft 437 kts 347°
2026-05-06 13:45 38.65044 -8.62647 29417 ft 432 kts 347°
2026-05-06 13:46 38.67990 -8.63278 29984 ft 426 kts 347°
2026-05-06 13:46 38.70896 -8.63901 30477 ft 420 kts 347°
2026-05-06 13:46 38.73762 -8.64518 30966 ft 414 kts 347°
2026-05-06 13:46 38.76582 -8.65127 31468 ft 407 kts 347°
2026-05-06 13:47 38.79324 -8.65718 31975 ft 400 kts 346°
2026-05-06 13:47 38.82052 -8.66305 32421 ft 395 kts 346°
2026-05-06 13:47 38.84752 -8.66886 32780 ft 391 kts 346°
2026-05-06 13:47 38.87443 -8.67462 33072 ft 389 kts 346°
2026-05-06 13:48 38.90113 -8.68033 33343 ft 388 kts 346°
2026-05-06 13:48 38.92767 -8.68605 33593 ft 386 kts 346°
2026-05-06 13:48 38.95397 -8.69175 33733 ft 388 kts 346°
2026-05-06 13:48 38.98069 -8.69758 33875 ft 389 kts 346°
2026-05-06 13:49 39.00749 -8.70343 34008 ft 390 kts 346°
2026-05-06 13:49 39.03441 -8.70927 34129 ft 392 kts 346°
2026-05-06 13:49 39.06139 -8.71511 34248 ft 393 kts 346°
2026-05-06 13:49 39.08810 -8.72087 34368 ft 394 kts 346°
2026-05-06 13:50 39.11530 -8.72674 34488 ft 396 kts 346°
2026-05-06 13:50 39.14249 -8.73265 34607 ft 397 kts 346°
2026-05-06 13:50 39.16981 -8.73859 34727 ft 398 kts 346°
2026-05-06 13:50 39.19719 -8.74454 34852 ft 399 kts 346°
2026-05-06 13:51 39.22457 -8.75047 34975 ft 399 kts 346°
2026-05-06 13:51 39.25206 -8.75642 35101 ft 400 kts 346°
2026-05-06 13:51 39.27923 -8.76229 35222 ft 401 kts 346°
2026-05-06 13:51 39.30677 -8.76828 35343 ft 401 kts 346°
2026-05-06 13:52 39.33431 -8.77430 35462 ft 402 kts 345°
2026-05-06 13:52 39.36204 -8.78039 35568 ft 403 kts 345°
2026-05-06 13:52 39.38976 -8.78647 35676 ft 404 kts 346°
2026-05-06 13:52 39.41751 -8.79256 35770 ft 405 kts 346°
2026-05-06 13:53 39.44528 -8.79867 35926 ft 405 kts 346°
2026-05-06 13:53 39.47321 -8.80482 36000 ft 406 kts 346°
2026-05-06 13:53 39.52947 -8.81717 36011 ft 413 kts 346°
2026-05-06 13:54 39.58652 -8.82965 36007 ft 421 kts 346°
2026-05-06 13:54 39.64467 -8.84242 36022 ft 429 kts 346°
2026-05-06 13:55 39.70408 -8.85542 36028 ft 436 kts 346°
2026-05-06 13:55 39.76457 -8.86880 36034 ft 443 kts 346°
2026-05-06 13:56 39.82585 -8.88231 36032 ft 448 kts 346°
2026-05-06 13:56 39.88710 -8.89582 36029 ft 448 kts 346°
2026-05-06 13:57 39.94874 -8.90955 36028 ft 449 kts 346°
2026-05-06 13:57 40.01002 -8.92317 36028 ft 449 kts 346°
2026-05-06 13:58 40.07171 -8.93687 36030 ft 449 kts 346°
2026-05-06 13:58 40.13335 -8.95068 36034 ft 449 kts 346°
2026-05-06 13:59 40.19515 -8.96453 36034 ft 450 kts 346°
2026-05-06 13:59 40.25706 -8.97837 36038 ft 450 kts 346°
2026-05-06 14:00 40.31857 -8.99211 36041 ft 451 kts 346°
2026-05-06 14:00 40.38064 -9.00608 36024 ft 451 kts 346°
2026-05-06 14:01 40.44266 -9.02018 36043 ft 452 kts 346°
2026-05-06 14:01 40.50439 -9.03408 36048 ft 452 kts 346°
2026-05-06 14:02 40.56668 -9.04807 36048 ft 452 kts 346°
2026-05-06 14:02 40.61835 -9.05979 36048 ft 452 kts 346°
2026-05-06 14:03 40.69058 -9.07617 36055 ft 453 kts 347°
2026-05-06 14:03 40.74229 -9.08793 36048 ft 453 kts 347°
2026-05-06 14:04 40.80447 -9.10208 36050 ft 453 kts 347°
2026-05-06 14:04 40.86676 -9.11627 36046 ft 453 kts 347°
2026-05-06 14:05 40.92894 -9.13046 36052 ft 453 kts 347°
2026-05-06 14:05 40.99111 -9.14473 36047 ft 453 kts 347°
2026-05-06 14:06 41.05303 -9.15897 36043 ft 454 kts 347°
2026-05-06 14:06 41.11533 -9.17328 36045 ft 454 kts 347°
2026-05-06 14:07 41.17765 -9.18756 36047 ft 454 kts 347°
2026-05-06 14:07 41.23992 -9.20190 36039 ft 454 kts 347°
2026-05-06 14:08 41.30189 -9.21628 36039 ft 454 kts 347°
2026-05-06 14:08 41.33337 -9.22120 36032 ft 458 kts 358°
2026-05-06 14:08 41.36511 -9.21569 36031 ft 463 kts 14°
2026-05-06 14:09 41.39475 -9.19873 36027 ft 467 kts 31°
2026-05-06 14:09 41.42142 -9.17383 36021 ft 468 kts 34°
2026-05-06 14:09 41.47426 -9.12254 36016 ft 470 kts 34°
2026-05-06 14:10 41.52734 -9.07109 36020 ft 471 kts 34°
2026-05-06 14:10 41.58018 -9.02002 36024 ft 471 kts 34°
2026-05-06 14:11 41.63343 -8.96829 36029 ft 472 kts 34°
2026-05-06 14:11 41.68657 -8.91655 36029 ft 472 kts 34°
2026-05-06 14:12 41.73948 -8.86496 36035 ft 472 kts 34°
2026-05-06 14:12 41.79272 -8.81300 36034 ft 473 kts 34°
2026-05-06 14:13 41.84593 -8.76093 36035 ft 473 kts 34°
2026-05-06 14:13 41.89873 -8.70913 36035 ft 472 kts 34°
2026-05-06 14:14 41.95195 -8.65679 36038 ft 472 kts 34°
2026-05-06 14:14 42.00508 -8.60451 36041 ft 472 kts 34°
2026-05-06 14:15 42.05769 -8.55247 36043 ft 472 kts 35°
2026-05-06 14:15 42.11073 -8.49998 36047 ft 472 kts 35°
2026-05-06 14:16 42.16369 -8.44741 36047 ft 472 kts 35°
2026-05-06 14:16 42.21629 -8.39514 36044 ft 472 kts 35°
2026-05-06 14:17 42.26924 -8.34236 36041 ft 471 kts 35°
2026-05-06 14:17 42.32210 -8.28977 36036 ft 471 kts 35°
2026-05-06 14:18 42.37463 -8.23730 36029 ft 471 kts 35°
2026-05-06 14:18 42.42730 -8.18435 36027 ft 471 kts 35°
2026-05-06 14:19 42.48002 -8.13134 36028 ft 471 kts 35°
2026-05-06 14:19 42.53231 -8.07874 36030 ft 470 kts 35°
2026-05-06 14:20 42.58500 -8.02574 36031 ft 470 kts 35°
2026-05-06 14:20 42.63757 -7.97262 36030 ft 470 kts 35°
2026-05-06 14:21 42.68966 -7.91975 36031 ft 469 kts 35°
2026-05-06 14:21 42.74206 -7.86647 36031 ft 469 kts 35°
2026-05-06 14:22 42.79434 -7.81327 36033 ft 469 kts 35°
2026-05-06 14:22 42.84661 -7.75998 36037 ft 468 kts 35°
2026-05-06 14:23 42.89861 -7.70698 36035 ft 468 kts 35°
2026-05-06 14:23 42.95079 -7.65364 36041 ft 468 kts 35°
2026-05-06 14:24 43.00295 -7.60006 36040 ft 468 kts 35°
2026-05-06 14:24 43.05472 -7.54682 36041 ft 467 kts 35°
2026-05-06 14:25 43.10672 -7.49327 36044 ft 467 kts 35°
2026-05-06 14:25 43.15871 -7.43948 36047 ft 467 kts 35°
2026-05-06 14:26 43.21022 -7.38601 36050 ft 467 kts 35°
2026-05-06 14:26 43.26213 -7.33221 36054 ft 467 kts 35°
2026-05-06 14:27 43.31406 -7.27817 36057 ft 466 kts 35°
2026-05-06 14:27 43.36554 -7.22455 36059 ft 466 kts 35°
2026-05-06 14:28 43.41725 -7.17064 36060 ft 466 kts 35°
2026-05-06 14:28 43.46894 -7.11646 36062 ft 466 kts 36°
2026-05-06 14:29 43.52062 -7.06224 36064 ft 466 kts 36°
2026-05-06 14:29 43.57188 -7.00832 36069 ft 466 kts 36°
2026-05-06 14:30 43.62344 -6.95401 36069 ft 465 kts 36°
2026-05-06 14:30 43.67497 -6.89968 36069 ft 465 kts 36°
2026-05-06 14:31 43.72640 -6.84517 36070 ft 465 kts 36°
2026-05-06 14:31 43.77772 -6.79077 36063 ft 464 kts 36°
2026-05-06 14:32 43.82867 -6.73666 36062 ft 464 kts 36°
2026-05-06 14:32 43.88006 -6.68192 36062 ft 464 kts 36°
2026-05-06 14:33 43.93134 -6.62721 36058 ft 464 kts 36°
2026-05-06 14:33 43.98226 -6.57268 36056 ft 464 kts 36°
2026-05-06 14:34 44.03344 -6.51774 36056 ft 463 kts 36°
2026-05-06 14:34 44.08421 -6.46321 36057 ft 463 kts 36°
2026-05-06 14:35 44.13527 -6.40814 36056 ft 463 kts 36°
2026-05-06 14:35 44.18624 -6.35307 36057 ft 463 kts 36°
2026-05-06 14:36 44.23720 -6.29799 36059 ft 463 kts 36°
2026-05-06 14:36 44.28779 -6.24310 36056 ft 463 kts 36°
2026-05-06 14:37 44.33871 -6.18764 36058 ft 463 kts 36°
2026-05-06 14:37 44.38962 -6.13220 36059 ft 463 kts 36°
2026-05-06 14:38 44.44013 -6.07720 36062 ft 463 kts 36°
2026-05-06 14:38 44.49098 -6.02165 36060 ft 463 kts 36°
2026-05-06 14:39 44.54183 -5.96589 36061 ft 463 kts 37°
2026-05-06 14:39 44.59225 -5.91041 36061 ft 463 kts 37°
2026-05-06 14:40 44.64295 -5.85444 36061 ft 463 kts 37°
2026-05-06 14:40 44.69703 -5.80603 36063 ft 460 kts 28°
2026-05-06 14:41 44.74334 -5.76884 36060 ft 460 kts 28°
2026-05-06 14:41 44.80802 -5.71672 36061 ft 460 kts 28°
2026-05-06 14:42 44.85435 -5.67927 36059 ft 460 kts 28°
2026-05-06 14:42 44.90988 -5.63407 36064 ft 460 kts 28°
2026-05-06 14:43 44.96526 -5.58889 36061 ft 460 kts 28°
2026-05-06 14:43 45.02071 -5.54368 36058 ft 459 kts 28°
2026-05-06 14:44 45.07583 -5.49874 36061 ft 459 kts 28°
2026-05-06 14:45 45.15890 -5.43079 36062 ft 459 kts 28°
2026-05-06 14:45 45.21421 -5.38541 36060 ft 459 kts 28°
2026-05-06 14:46 45.26920 -5.34027 36060 ft 458 kts 28°
2026-05-06 14:46 45.32445 -5.29479 36059 ft 458 kts 28°
2026-05-06 14:47 45.37961 -5.24921 36063 ft 458 kts 28°
2026-05-06 14:47 45.43459 -5.20351 36090 ft 456 kts 28°
2026-05-06 14:48 45.48911 -5.15786 36213 ft 456 kts 28°
2026-05-06 14:48 45.51640 -5.13489 36314 ft 456 kts 29°
2026-05-06 14:48 45.54380 -5.11173 36426 ft 456 kts 29°
2026-05-06 14:48 45.57114 -5.08855 36569 ft 456 kts 29°
2026-05-06 14:49 45.59812 -5.06558 36727 ft 455 kts 29°
2026-05-06 14:49 45.62531 -5.04235 36908 ft 453 kts 29°
2026-05-06 14:49 45.65236 -5.01914 37098 ft 451 kts 29°
2026-05-06 14:49 45.67917 -4.99605 37325 ft 449 kts 29°
2026-05-06 14:50 45.70589 -4.97295 37540 ft 447 kts 29°
2026-05-06 14:50 45.73240 -4.94993 37786 ft 444 kts 29°
2026-05-06 14:50 45.75840 -4.92726 38036 ft 440 kts 29°
2026-05-06 14:50 45.78450 -4.90440 38304 ft 436 kts 29°
2026-05-06 14:51 45.81028 -4.88173 38583 ft 432 kts 30°
2026-05-06 14:51 45.83575 -4.85922 38820 ft 427 kts 30°
2026-05-06 14:51 45.86093 -4.83687 39040 ft 422 kts 30°
2026-05-06 14:51 45.88576 -4.81471 39267 ft 415 kts 30°
2026-05-06 14:52 45.91016 -4.79286 39484 ft 410 kts 29°
2026-05-06 14:52 45.93551 -4.77264 38900 ft 427 kts 24°
2026-05-06 14:52 45.96244 -4.75410 38529 ft 438 kts 23°
2026-05-06 14:53 46.01737 -4.71523 38613 ft 441 kts 26°
2026-05-06 14:53 46.07129 -4.67162 38164 ft 450 kts 29°
2026-05-06 14:53 46.09825 -4.64806 37783 ft 455 kts 30°
2026-05-06 14:54 46.12522 -4.62401 37399 ft 456 kts 30°
2026-05-06 14:54 46.15230 -4.59991 37023 ft 456 kts 30°
2026-05-06 14:54 46.17941 -4.57609 36655 ft 455 kts 29°
2026-05-06 14:54 46.20655 -4.55257 36288 ft 454 kts 29°
2026-05-06 14:55 46.23373 -4.52930 36010 ft 453 kts 28°
2026-05-06 14:55 46.28776 -4.48341 36020 ft 453 kts 28°
2026-05-06 14:56 46.34209 -4.43694 36016 ft 453 kts 29°
2026-05-06 14:56 46.39639 -4.39005 36011 ft 453 kts 29°
2026-05-06 14:57 46.45037 -4.34344 36017 ft 453 kts 29°
2026-05-06 14:57 46.50466 -4.29654 36015 ft 453 kts 29°
2026-05-06 14:58 46.55895 -4.24922 36022 ft 454 kts 29°
2026-05-06 14:58 46.61285 -4.20218 36029 ft 454 kts 29°
2026-05-06 14:59 46.66706 -4.15501 36020 ft 454 kts 29°
2026-05-06 14:59 46.72140 -4.10778 36023 ft 453 kts 29°
2026-05-06 15:00 46.77532 -4.06066 36028 ft 453 kts 29°
2026-05-06 15:00 46.82943 -4.01319 36023 ft 453 kts 29°
2026-05-06 15:01 46.88349 -3.96548 36020 ft 453 kts 29°
2026-05-06 15:01 46.93755 -3.91772 36022 ft 453 kts 29°
2026-05-06 15:02 46.99157 -3.86993 36027 ft 453 kts 29°
2026-05-06 15:02 47.04529 -3.82230 36020 ft 453 kts 30°
2026-05-06 15:03 47.09933 -3.77422 36023 ft 453 kts 30°
2026-05-06 15:03 47.15327 -3.72619 36011 ft 453 kts 30°
2026-05-06 15:04 47.20693 -3.67823 36015 ft 453 kts 30°
2026-05-06 15:04 47.26093 -3.62984 36007 ft 453 kts 30°
2026-05-06 15:05 47.31475 -3.58144 36005 ft 453 kts 30°
2026-05-06 15:05 47.36856 -3.53298 35998 ft 453 kts 30°
2026-05-06 15:06 47.42218 -3.48463 35997 ft 453 kts 30°
2026-05-06 15:06 47.47599 -3.43602 35993 ft 453 kts 30°
2026-05-06 15:07 47.52974 -3.38728 35992 ft 453 kts 30°
2026-05-06 15:07 47.58330 -3.33866 35991 ft 453 kts 30°
2026-05-06 15:08 47.63704 -3.28977 35993 ft 453 kts 30°
2026-05-06 15:08 47.69071 -3.24071 35993 ft 453 kts 30°
2026-05-06 15:09 47.74443 -3.19156 35995 ft 453 kts 30°
2026-05-06 15:09 47.79775 -3.14258 35991 ft 453 kts 30°
2026-05-06 15:10 47.85148 -3.09308 35989 ft 453 kts 30°
2026-05-06 15:10 47.90491 -3.04391 35989 ft 453 kts 30°
2026-05-06 15:11 47.95864 -2.99430 35985 ft 453 kts 30°
2026-05-06 15:11 48.01230 -2.94459 35984 ft 453 kts 31°
2026-05-06 15:12 48.06564 -2.89498 35990 ft 453 kts 31°
2026-05-06 15:12 48.11928 -2.84503 35986 ft 453 kts 30°
2026-05-06 15:13 48.17292 -2.79492 35985 ft 453 kts 31°
2026-05-06 15:13 48.22619 -2.74502 35989 ft 453 kts 31°
2026-05-06 15:14 48.27981 -2.69469 35996 ft 453 kts 31°
2026-05-06 15:14 48.33333 -2.64443 36001 ft 453 kts 31°
2026-05-06 15:15 48.38690 -2.59388 36003 ft 454 kts 31°
2026-05-06 15:15 48.44029 -2.54319 36006 ft 454 kts 32°
2026-05-06 15:16 48.48738 -2.48062 36003 ft 456 kts 45°
2026-05-06 15:16 48.53094 -2.41102 35998 ft 456 kts 45°
2026-05-06 15:17 48.57450 -2.34132 35993 ft 456 kts 45°
2026-05-06 15:17 48.61813 -2.27136 35992 ft 456 kts 45°
2026-05-06 15:18 48.66134 -2.20184 35994 ft 456 kts 45°
2026-05-06 15:18 48.70494 -2.13157 35998 ft 456 kts 45°
2026-05-06 15:19 48.74809 -2.06182 36002 ft 456 kts 46°
2026-05-06 15:19 48.79149 -1.99135 35996 ft 456 kts 46°
2026-05-06 15:20 48.82753 -1.93276 35999 ft 456 kts 46°
2026-05-06 15:20 48.88019 -1.85469 36005 ft 454 kts 34°
2026-05-06 15:21 48.92383 -1.80912 36014 ft 454 kts 33°
2026-05-06 15:21 48.97600 -1.75499 36008 ft 454 kts 33°
2026-05-06 15:22 49.02787 -1.70085 36012 ft 454 kts 33°
2026-05-06 15:22 49.08003 -1.64623 36018 ft 454 kts 33°
2026-05-06 15:23 49.13196 -1.59190 36014 ft 454 kts 33°
2026-05-06 15:23 49.18404 -1.53714 36016 ft 454 kts 33°
2026-05-06 15:24 49.23620 -1.48207 36025 ft 454 kts 33°
2026-05-06 15:24 49.28825 -1.42710 36017 ft 454 kts 33°
2026-05-06 15:25 49.34012 -1.37222 36020 ft 454 kts 33°
2026-05-06 15:25 49.39198 -1.31717 36020 ft 455 kts 33°
2026-05-06 15:26 49.44399 -1.26147 36021 ft 455 kts 34°
2026-05-06 15:26 49.49598 -1.20569 36015 ft 455 kts 33°
2026-05-06 15:27 49.54804 -1.14988 36014 ft 455 kts 34°
2026-05-06 15:27 49.59970 -1.09399 36017 ft 455 kts 35°
2026-05-06 15:28 49.65004 -1.03521 36018 ft 455 kts 37°
2026-05-06 15:28 49.69999 -0.97463 36019 ft 456 kts 37°
2026-05-06 15:29 49.75329 -0.92247 36016 ft 453 kts 21°
2026-05-06 15:29 49.81403 -0.89862 36011 ft 449 kts
2026-05-06 15:30 49.87646 -0.89014 36011 ft 450 kts
2026-05-06 15:30 49.93850 -0.88137 36008 ft 451 kts
2026-05-06 15:31 50.00101 -0.87231 36008 ft 451 kts
2026-05-06 15:31 50.06364 -0.86336 36008 ft 452 kts
2026-05-06 15:32 50.15765 -0.84999 35744 ft 451 kts
2026-05-06 15:32 50.18894 -0.84552 35500 ft 451 kts
2026-05-06 15:32 50.22019 -0.84101 35248 ft 450 kts
2026-05-06 15:33 50.25147 -0.83647 35007 ft 449 kts
2026-05-06 15:33 50.28223 -0.83201 34683 ft 449 kts
2026-05-06 15:33 50.31349 -0.82751 33773 ft 452 kts
2026-05-06 15:33 50.34500 -0.82300 32816 ft 454 kts
2026-05-06 15:34 50.37647 -0.81850 31917 ft 455 kts
2026-05-06 15:34 50.40812 -0.81397 31018 ft 456 kts
2026-05-06 15:34 50.43984 -0.80945 30004 ft 459 kts
2026-05-06 15:34 50.47180 -0.80486 28882 ft 462 kts
2026-05-06 15:35 50.50386 -0.80017 27906 ft 461 kts
2026-05-06 15:35 50.53550 -0.79555 27148 ft 463 kts
2026-05-06 15:35 50.56775 -0.79080 26521 ft 465 kts
2026-05-06 15:35 50.60003 -0.78600 25907 ft 466 kts
2026-05-06 15:36 50.63241 -0.78120 25305 ft 468 kts
2026-05-06 15:36 50.66496 -0.77637 24717 ft 470 kts
2026-05-06 15:36 50.69641 -0.77174 24160 ft 471 kts
2026-05-06 15:36 50.73029 -0.76676 23571 ft 470 kts
2026-05-06 15:37 50.76281 -0.76202 22909 ft 467 kts
2026-05-06 15:37 50.79464 -0.75683 22263 ft 463 kts
2026-05-06 15:37 50.82598 -0.74473 21972 ft 463 kts 17°
2026-05-06 15:37 50.85599 -0.72603 21825 ft 463 kts 21°
2026-05-06 15:38 50.88581 -0.70679 20895 ft 461 kts 20°
2026-05-06 15:38 50.91547 -0.68777 20024 ft 458 kts 20°
2026-05-06 15:38 50.94475 -0.66900 19398 ft 450 kts 20°
2026-05-06 15:38 50.97361 -0.65045 18810 ft 444 kts 20°
2026-05-06 15:39 51.00181 -0.63221 18243 ft 440 kts 21°
2026-05-06 15:39 51.02999 -0.61390 17610 ft 435 kts 21°
2026-05-06 15:39 51.05796 -0.59568 16961 ft 430 kts 21°
2026-05-06 15:39 51.08561 -0.57768 16337 ft 426 kts 20°
2026-05-06 15:40 51.11264 -0.56011 16031 ft 423 kts 20°
2026-05-06 15:40 51.13985 -0.54238 15976 ft 422 kts 20°
2026-05-06 15:40 51.16710 -0.52461 15996 ft 423 kts 20°
2026-05-06 15:40 51.19438 -0.50682 15998 ft 423 kts 20°
2026-05-06 15:41 51.22168 -0.48897 15997 ft 423 kts 20°
2026-05-06 15:41 51.24891 -0.47115 15998 ft 423 kts 20°
2026-05-06 15:41 51.27589 -0.45345 15997 ft 423 kts 20°
2026-05-06 15:41 51.30311 -0.43558 15999 ft 423 kts 20°
2026-05-06 15:42 51.33038 -0.41769 15997 ft 423 kts 20°
2026-05-06 15:42 51.35767 -0.39976 16002 ft 423 kts 20°
2026-05-06 15:42 51.38490 -0.38182 16002 ft 423 kts 20°
2026-05-06 15:42 51.41212 -0.36387 16003 ft 423 kts 20°
2026-05-06 15:43 51.43937 -0.34580 15997 ft 415 kts 21°
2026-05-06 15:43 51.46496 -0.32751 15999 ft 390 kts 23°
2026-05-06 15:43 51.48857 -0.30946 16002 ft 370 kts 24°
2026-05-06 15:43 51.51107 -0.29170 16002 ft 350 kts 24°
2026-05-06 15:44 51.53239 -0.27479 16001 ft 332 kts 24°
2026-05-06 15:44 51.55272 -0.25880 16001 ft 320 kts 23°
2026-05-06 15:44 51.57275 -0.24323 16002 ft 318 kts 23°
2026-05-06 15:44 51.59273 -0.22783 16053 ft 317 kts 23°
2026-05-06 15:45 51.61219 -0.21287 15549 ft 323 kts 23°
2026-05-06 15:45 51.63247 -0.19732 15239 ft 316 kts 23°
2026-05-06 15:45 51.65217 -0.18219 14920 ft 311 kts 23°
2026-05-06 15:45 51.67162 -0.16725 14535 ft 308 kts 23°
2026-05-06 15:46 51.69096 -0.15237 14156 ft 306 kts 23°
2026-05-06 15:46 51.70969 -0.13791 13760 ft 304 kts 23°
2026-05-06 15:46 51.72894 -0.12301 13330 ft 302 kts 23°
2026-05-06 15:46 51.74759 -0.10858 12910 ft 299 kts 23°
2026-05-06 15:47 51.76644 -0.09446 12497 ft 297 kts 21°
2026-05-06 15:47 51.78536 -0.08106 12081 ft 294 kts 21°
2026-05-06 15:47 51.80387 -0.06825 11687 ft 292 kts 20°
2026-05-06 15:47 51.82249 -0.05547 11285 ft 289 kts 21°
2026-05-06 15:48 51.84101 -0.04274 10861 ft 287 kts 20°
2026-05-06 15:48 51.85932 -0.03005 10466 ft 285 kts 21°
2026-05-06 15:48 51.87747 -0.01737 10122 ft 281 kts 21°
2026-05-06 15:48 51.89510 -0.00500 9926 ft 272 kts 21°
2026-05-06 15:49 51.91234 0.00712 9553 ft 269 kts 21°
2026-05-06 15:49 51.92943 0.01915 9137 ft 267 kts 22°
2026-05-06 15:49 51.94644 0.03103 8742 ft 265 kts 20°
2026-05-06 15:49 51.96414 0.03573 8341 ft 261 kts 353°
2026-05-06 15:50 51.98105 0.02602 7909 ft 260 kts 325°
2026-05-06 15:50 51.99263 0.00409 7637 ft 255 kts 294°
2026-05-06 15:50 51.99573 -0.02336 7445 ft 247 kts 264°
2026-05-06 15:50 51.98997 -0.04921 7110 ft 245 kts 232°
2026-05-06 15:51 51.97692 -0.06638 6736 ft 243 kts 200°
2026-05-06 15:51 51.96052 -0.07108 6378 ft 240 kts 179°
2026-05-06 15:51 51.94376 -0.07103 6006 ft 240 kts 177°
2026-05-06 15:51 51.92713 -0.07025 5651 ft 239 kts 176°
2026-05-06 15:52 51.91065 -0.06924 5310 ft 239 kts 176°
2026-05-06 15:52 51.89408 -0.06808 4977 ft 238 kts 176°
2026-05-06 15:52 51.87756 -0.06682 4710 ft 234 kts 176°
2026-05-06 15:52 51.86173 -0.06557 4562 ft 221 kts 176°
2026-05-06 15:53 51.84675 -0.06441 4407 ft 211 kts 176°
2026-05-06 15:53 51.83219 -0.06327 4170 ft 208 kts 176°
2026-05-06 15:53 51.81771 -0.06203 3864 ft 208 kts 176°
2026-05-06 15:53 51.80354 -0.06069 3713 ft 199 kts 176°
2026-05-06 15:54 51.78992 -0.05942 3440 ft 198 kts 176°
2026-05-06 15:54 51.77609 -0.05813 3121 ft 199 kts 176°
2026-05-06 15:54 51.76231 -0.05685 3051 ft 199 kts 176°
2026-05-06 15:54 51.74849 -0.05463 3047 ft 200 kts 163°
2026-05-06 15:55 51.73730 -0.04234 3049 ft 195 kts 123°
2026-05-06 15:55 51.73348 -0.02221 3047 ft 187 kts 82°
2026-05-06 15:55 51.73560 -0.00185 3043 ft 183 kts 72°
2026-05-06 15:55 51.74028 0.01686 3046 ft 179 kts 53°
2026-05-06 15:56 51.74865 0.03131 3010 ft 176 kts 40°
2026-05-06 15:56 51.75770 0.04472 3013 ft 176 kts 39°
2026-05-06 15:56 51.76670 0.05811 3024 ft 176 kts 40°
2026-05-06 15:56 51.77563 0.07140 3003 ft 168 kts 39°
2026-05-06 15:57 51.78396 0.08381 2876 ft 159 kts 39°
2026-05-06 15:57 51.78929 0.09176 2765 ft 156 kts 39°
2026-05-06 15:57 51.79989 0.10753 2508 ft 160 kts 40°
2026-05-06 15:57 51.80777 0.11930 2288 ft 148 kts 39°
2026-05-06 15:58 51.81512 0.13028 2090 ft 140 kts 38°
2026-05-06 15:58 51.82225 0.14092 1914 ft 138 kts 38°
2026-05-06 15:58 51.82698 0.14781 1810 ft 137 kts 38°
2026-05-06 15:58 51.83407 0.15822 1645 ft 137 kts 38°
2026-05-06 15:59 51.84111 0.16876 1441 ft 138 kts 39°
2026-05-06 15:59 51.84814 0.17932 1215 ft 138 kts 39°
2026-05-06 15:59 51.85509 0.18998 1042 ft 139 kts 41°
2026-05-06 15:59 51.86222 0.20049 841 ft 138 kts 40°
2026-05-06 16:00 51.86925 0.21103 599 ft 135 kts 42°
2026-05-06 16:00 51.87619 0.22159 426 ft 136 kts 41°
2026-05-06 16:00 51.88291 0.23163 345 ft 122 kts 42°
2026-05-06 16:00 51.88792 0.23915 336 ft 74 kts 43°
2026-05-06 16:01 51.89028 0.24308 346 ft 30 kts 60°
2026-05-06 16:01 51.89118 0.24602 353 ft 19 kts 68°
2026-05-06 16:01 51.89162 0.24780 353 ft 15 kts 70°
2026-05-06 16:01 51.89163 0.24862 350 ft 2 kts 109°
2026-05-06 16:02 51.89157 0.24881 355 ft 4 kts 112°
2026-05-06 16:02 51.89156 0.24888 355 ft 0 kts 110°
2026-05-06 16:02 51.89155 0.24891 355 ft 2 kts 110°
2026-05-06 16:02 51.89168 0.24963 352 ft 10 kts 51°
2026-05-06 16:03 51.89223 0.25067 354 ft 16 kts 59°
2026-05-06 16:03 51.89208 0.25227 355 ft 16 kts 133°
2026-05-06 16:03 51.89137 0.25350 352 ft 15 kts 133°
2026-05-06 16:03 51.89069 0.25468 349 ft 14 kts 133°
2026-05-06 16:04 51.89043 0.25554 351 ft 6 kts 65°
2026-05-06 16:04 51.89069 0.25596 351 ft 3 kts 43°
2026-05-06 16:04 51.89075 0.25606 351 ft 1 kts 43°
2026-05-06 16:04 51.89079 0.25612 349 ft 1 kts 43°
2026-05-06 16:13 51.89080 0.25612 349 ft 0 kts 43°